Regional Weather Roundup
Issued by NWS

Home | Current Version | Previous Version | Graphics & Text | Print | Product List | Glossary On
Versions: 1 2 3 4 5 6 7 8 9 10 11 12 13 14 15 16 17 18 19 20 21 22 23 24 25 26 27 28 29 30 31 32 33 34 35 36 37 38 39 40 41 42 43 44 45 46 47 48 49 50
000
ASUS43 KFSD 251310
RWRSD

WEATHER ROUNDUP FOR SOUTH DAKOTA
NATIONAL WEATHER SERVICE SIOUX FALLS SD
800 AM CDT SAT APR 25 2015

NOTE: "FAIR" INDICATES FEW OR NO CLOUDS BELOW 12,000 FEET WITH NO
SIGNIFICANT WEATHER AND/OR OBSTRUCTIONS TO VISIBILITY.


SDZ001>005-009-010-012>017-251400-
NORTHWEST AND NORTH CENTRAL SOUTH DAKOTA

CITY           SKY/WX    TMP DP  RH WIND       PRES   REMARKS
BUFFALO          N/A     42  41  96 SE8       29.64R
FAITH            N/A     43  42  97 E14       29.70R
MOBRIDGE       CLOUDY    45  43  93 E15       29.72R FOG
$$

SDZ012>016-024>037-041>051-057-063-072>074-251400-
SOUTHWEST AND SOUTH CENTRAL SOUTH DAKOTA

CITY           SKY/WX    TMP DP  RH WIND       PRES   REMARKS
RAPID CTY ARPT CLOUDY    42  41  96 NE3       29.70S FOG
PIERRE         FOG       45  44  97 NE18      29.69R VSB 1
CUSTER         SUNNY     35  32  88 CALM      29.71R
ELLSWORTH AFB  FOG       41  41 100 S2        29.69  VSB 1/2
PHILIP         FOG       46  45  96 NE7       29.70R VSB 1/2
PINE RIDGE     CLOUDY    41  39  93 CALM      29.69R FOG
SPEARFISH      FAIR      41  34  75 CALM      29.68S
WINNER         LGT RAIN  52  49  89 SE3       29.66R VSB 1/4
$$

SDZ004>011-016>023-039-040-251400-
NORTHEAST SOUTH DAKOTA

CITY           SKY/WX    TMP DP  RH WIND       PRES   REMARKS
ABERDEEN       CLOUDY    44  42  93 E16       29.76R FOG
WATERTOWN      CLOUDY    42  40  92 E10G20    29.73R FOG
BROOKINGS      CLOUDY    43  39  87 E15       29.73R
SISSETON         N/A     43  43 100 SE12      29.78R
$$

SDZ017-020-022-023-036>040-048>070-251400-
SOUTHEAST SOUTH DAKOTA

CITY           SKY/WX    TMP DP  RH WIND       PRES   REMARKS
SIOUX FALLS    CLOUDY    45  41  86 E16       29.69R
HURON          CLOUDY    47  44  90 NE12      29.71R FOG
CHAMBERLAIN    CLOUDY    49  47  90 E8        29.68R
MITCHELL       CLOUDY    48  46  93 E8        29.70R FOG
YANKTON        CLOUDY    46  41  81 E12       29.66R
$$

ABBREVIATIONS USED IN REMARKS
   TC - TEMPERATURE IN CELSIUS
  WCI - WIND CHILL INDEX
   HX - HEAT INDEX
  VSB - VISIBILITY




USA.gov is the U.S. government's official web portal to all federal, state and local government web resources and services.